Погода в Братске

Погода в Братске : погода сейчас, прогноз погоды и архив. Всё, что Вы хотите узнать о погоде в Братске!

Поиск расширенной информации на нашем сайте:

Другие новости

Новости СМИ2

Главная страница сайта

Новости сайта

03.07.2017

Напоминаем, что на нашем специализированном сайте Метеоцентр.Азия вы можете получить высокодетализированные автоматические прогнозы погоды по пунктам России, СНГ и мира в авиационном формате (включающие направление и скорость ветра, видимость, явления погоды, количество и форму облачности, нижнюю и верхнюю границу облачности).


Погода в Братске - сегодня

Время (UTC), дата Ветер
(°,м/с) 
Видим.   Явления Облачность Т
(°С)
Тd
(°С)
f(%) Тe
(°С)
Pmin
(гПа)
dP
(гПа)
Po
(мм)
O2
(г/м3)
Тmin Tmax R s Состояние
почвы
03 22.05.18 130 (ЮВ) 20000 м    10/4 600 м кучево-дожд., средняя, верхняя 
[Cb cap|Ac lent|Ci sp]
+8.8 +1.8 61 +9  1003.4  -3  716  279           
06 22.05.18 240 (ЮЗ) 20000 м  слаб. ливневой дождь  10/10 600 м кучево-дожд. 
[Cb cap]
+6.1 +3.7 85 +5  1001.6  -2.1  714  281           
09 22.05.18 190 (Ю) 20000 м  ливневой дождь  10/10 600 м кучево-дожд. 
[Cb cap]
+4.2 +3.8 97 +3  999.9  -2  713  282           
12 22.05.18 150 (ЮВ) 20000 м  слаб. ливневой дождь  10/10 600 м кучево-дожд. 
[Cb cap]
+4.6 +4.1 97 +5  998.8  -1  712  281    +9.3     
15 22.05.18 270 (З) н/о  в посл. час ливневой дождь  10/8 600 м кучево-дожд., верхняя 
[Cb cap|Ci fib]
+6.7 +6.4 98 +7  997.6  -0.7  711  279           
18 22.05.18 тихо ()   н/о  слаб. ливневой дождь  10/10 600 м кучево-дожд. 
[Cb cap]
+6.4 +6 97 +6  996  -1.6  710  279           
21 22.05.18 230 (ЮЗ) 2000 м  в посл. час ливневой дождь  10/10 600 м кучево-дожд. 
[Cb cap]
+6.1 +5.8 98 +7  994.1  -1.9  709  278           
00 23.05.18 290 (З) 20000 м  слаб. ливневой дождь  10/9 600 м кучево-дожд., верхняя 
[Cb cap|Ci fib]
+7.9 +6.2 89 +8  993.6  -0.2  709  276  +4.5      мокрая 
03 23.05.18 280 (З) 20000 м  {ливн. осадки}  10/10 600 м кучево-дожд. 
[Cb cap]
+8.4 +5 79 +8  993.9  0.5  709  276           
06 23.05.18 300 (СЗ) 20000 м  {ливн. осадки}  8/8 600 м кучево-дожд. 
[Cb cap]
+10.8 +2.1 55 +11  994.4  0.7  710  275           
09 23.05.18 290 (З) 20000 м    9/8 600 м средняя, верхняя 
[Cu Sc|As trans|Ci fib]
+13.4 +0.8 42 +15  994  -0.1  710  272           
12 23.05.18 310 (СЗ) 20000 м    8/3 600 м средняя, верхняя 
[Sc|Ac cast|Ci sp]
+11 +0.8 49 +11  995.5  710  275    +13.9  0.0     
15 23.05.18 360 (С) н/о    8/1 1000 м средняя, верхняя 
[Sc|Ac trans|Ci fib]
+7.4 +0.6 62 +8  996.7  0.6  711  279           
18 23.05.18 тихо ()   н/о    10/10 1000 м 
[Sc]
+5.6 +2 78 +6  996.9  -0.2  711  280           
21 23.05.18 010 (С) 20000 м    8/5 1000 м средняя, верхняя 
[Sc|Ac trans|Ci fib]
+4.8 +1.5 79 +6  998  0.9  711  281           
00 24.05.18 030 (СВ) 20000 м  слаб. ливневой дождь  10/10 600 м кучево-дожд. 
[Cb cap]
+5.5 +3.7 88 +6  1000.5  2.6  713  281  +4    0.0    влажная 
03 24.05.18 230 (ЮЗ) 20000 м  {ливн. осадки}  10/5 600 м кучево-дожд., средняя 
[Cb cap|As op]
+7 +2.3 72 +8  1002.2  1.9  715  280           
06 24.05.18 150 (ЮВ) 20000 м  {ливн. осадки}  9/9 600 м кучево-дожд. 
[Cb cap]
+7.4 +4.5 82 +7  1004.6  2.4  717  280           
09 24.05.18 190 (Ю) 20000 м  {ливн. осадки}  10/3 1000 м средняя 
[Cu Sc|As op]
+8.4 +3 69 +9  1006.2  1.6  718  280           
12 24.05.18 190 (Ю) 20000 м  {ливн. осадки}  10/4 1000 м кучево-дожд., средняя, верхняя 
[Cb cap|As op|Cs]
+7.7 +3.5 75 +8  1009  2.6  720  281    +11  0.0     
15 24.05.18 330 (СЗ) н/о    10/5 1000 м средняя 
[Sc|As op]
+6.9 +3.1 77 +8  1010.9  1.6  721  283           
18 24.05.18 060 (СВ) н/о    10/3 1000 м средняя 
[Sc|As op]
+7 +1.5 68 +8  1011.9  722  283           
21 24.05.18 тихо ()   20000 м    10/10 600 м кучево-дожд. 
[Cb cap]
+6 +1 70 +6  1014.3  2.1  723  285           
00 25.05.18 тихо ()   20000 м  слаб. ливневой дождь  10/10 600 м кучево-дожд. 
[Cb cap]
+6.4 +2.4 76 +6  1015.7  1.4  724  285  +5.7    0.3    влажная 
06 25.05.18 тихо ()   20000 м  в посл. час ливневой дождь  10/5 600 м кучево-дожд., средняя 
[Cb cap|As op]
+8.4 +2.9 68 +8  1015.3  -0.4  724  283           
Время (UTC), дата Ветер
(°,м/с) 
Видим.   Явления Облачность Т
(°С)
Тd
(°С)
f(%) Тe
(°С)
Pmin
(гПа)
dP
(гПа)
Po
(мм)
O2
(г/м3)
Тmin Tmax R s Состояние
почвы

Для получения пояснительной информации подведите курсор к названию столбца.

ПОГОДА в Братске - архив

Всё, что Вы хотите узнать о погоде в Братске - удобно и подробно!

Выберите нужную дату (начиная с 1 января 2015* года) и нажмите кнопку "Найти".
Будут отображены архивные сводки погоды по пункту Братск, начиная с указанной даты.


Отображать данные в формате CSV (для использования в таблицах Excel)


Внимание! Наш архив погоды предназначен исключительно для личного некоммерческого использования в познавательных целях. Если Вам необходимы официальные справки о состоянии погоды (для производственных, юридических, коммерческих и т.п. целей), обращайтесь в органы Росгидромета.

*Примечание: данная дата относится к архиву по метеостанциям СССР (Россия, СНГ, Балтия).
Архив по метеостанциям Зарубежной Европы и Азии (кроме Китая) хранится 10 дней, по другим регионам земного шара (Китай, Африка, Америка, Австралия, Океания) - 1 день.

Братск - район местоположения метеостанции


Название, широта, долгота, высота метеостанции:
Братск (город) 56.3°ш. 101.8°д. 416 м над ур. моря [Российская Федерация]

Дополнительная информация

В oтличие oт бoльшинства пoгoдных сайтoв мы публикуем пoдрoбную метеoинфoрмацию в детальнoм прoфессиoнальнoм фoрмате.

Характеристики температуры и влажнoсти вoздуха измеряются на высoте 2 м в тени вдали oт зданий и деревьев.
Скoрoсть ветра измеряется на высoте 10 м (на урoвне рoста челoвека скoрoсть ветра ниже в 1.5-2 раза). Если метеoстанция нахoдится в гoрoде или в лесу, тo скoрoсть ветра занижена на 2-4 м/с пo сравнению с oткрытым местoм. Скoрoсть ветра над акватoриями крупных рек и oзёр, а также на вершинах хoлмoв на 2-5 м/с выше, чем в oбычных услoвиях.
Атмoсфернoе давление в разных тoчках местнoсти мoжет значительнo oтличаться oт давления на метеoстанции, в зависимoсти oт услoвий рельефа (при пoдъёме на 10 м давление пoнижается примернo на 1 мм рт.ст.).